Regional Weather Roundup
Issued by NWS

Home | Current Version | Previous Version | Graphics & Text | Print | Product List | Glossary On
Versions: 1 2 3 4 5 6 7 8 9 10 11 12 13 14 15 16 17 18 19 20 21 22 23 24 25 26 27 28 29 30 31 32 33 34 35 36 37 38 39 40 41 42 43 44 45 46 47 48 49 50
000
ASUS43 KLMK 310510
RWRKY
KENTUCKY REGIONAL WEATHER ROUNDUP
NATIONAL WEATHER SERVICE LOUISVILLE KY
100 AM EDT TUE MAY 31 2016

NOTE "FAIR" INDICATES FEW OR NO CLOUDS BELOW 12,000 FEET
WITH NO SIGNIFICANT WEATHER AND/OR OBSTRUCTIONS TO VISIBILITY.

KYZ001>023-026-027-061>063-070>075-310600-
WESTERN AND SOUTH CENTRAL KENTUCKY

CITY           SKY/WX    TMP DP  RH WIND       PRES   REMARKS
PADUCAH        CLOUDY    68  62  81 CALM      29.96F
HENDERSON      CLEAR     68  63  83 CALM      29.96S
OWENSBORO      CLEAR     72  65  78 E3        29.97F
HOPKINSVILLE   NOT AVBL
BOWLING GREEN  PTCLDY    69  62  78 CALM      29.98F
GLASGOW        CLEAR     65  65 100 CALM      29.99S
$$

KYZ024-025-028>034-038-045-046-053-310600-
NORTH CENTRAL KENTUCKY

CITY           SKY/WX    TMP DP  RH WIND       PRES   REMARKS
LOUISVILLE/SDF MOCLDY    73  60  63 CALM      29.99R
LOUISVILLE/LOU PTCLDY    72  60  66 CALM      29.99S
FORT KNOX      CLOUDY    64  60  86 N1        29.98S
$$

KYZ035>037-039>044-047>052-055>060-089>105-310600-
NORTHEAST KENTUCKY

CITY           SKY/WX    TMP DP  RH WIND       PRES   REMARKS
LEXINGTON      CLEAR     66  60  81 CALM      30.01S
COVINGTON      CLOUDY    65  58  78 CALM      30.00R
FRANKFORT      PTCLDY    65  59  81 CALM      29.99S
$$

KYZ054-064>069-076>088-106>120-310600-
SOUTHEAST KENTUCKY

CITY           SKY/WX    TMP DP  RH WIND       PRES   REMARKS
JACKSON        CLEAR     70  59  68 CALM      30.02F
LONDON         CLEAR     65  61  87 CALM      30.01F
SOMERSET       CLEAR     63  63 100 CALM      30.02S
MIDDLESBORO    CLEAR     64  63  97 CALM      30.02S
MONTICELLO     CLEAR     63  62  97 CALM      30.02F
$$





USA.gov is the U.S. government's official web portal to all federal, state and local government web resources and services.